This demonstration page uses our WeatherBlox Daily Observations layout. Learn more.

36.17497, -115.13722

Hourly Observations for July 15, 2016

Temp ( °F °C ) Dew Point ( °F °C ) Humidity (%) Winds ( mph kmh ) Pressure ( in mb ) Visibility ( mi km ) Precip ( " mm )
12:53 am 00:53 Clear 86 30 31 -0.6 14 14 NW 8 13 29.71 1006 10 16.09344 0 0
1:53 am 01:53 Clear 87 30.6 28 -2.2 12 12 Calm 29.74 1007 10 16.09344 0 0
2:53 am 02:53 Clear 83 28.3 28 -2.2 13 13 N 9 15 29.74 1007 10 16.09344 0 0
3:53 am 03:53 Clear 81 27.2 29 -1.7 15 15 WNW 7 11 29.77 1008 10 16.09344 0 0
4:53 am 04:53 Clear 78 25.6 33 0.6 19 19 NNW 5 7 29.77 1008 10 16.09344 0 0
5:53 am 05:53 Sunny 78 25.6 33 0.6 19 19 NW 7 11 29.77 1008 10 16.09344 0 0
6:53 am 06:53 Sunny 81 27.2 33 0.6 18 18 N 6 9 29.8 1009 10 16.09344 0 0
7:53 am 07:53 Sunny 87 30.6 31 -0.6 13 13 NNE 3 6 29.77 1008 10 16.09344 0 0
8:53 am 08:53 Sunny 89 31.7 31 -0.6 12 12 Calm 29.74 1007 10 16.09344 0 0
9:53 am 09:53 Sunny 94 34.4 31 -0.6 11 11 Calm 29.74 1007 10 16.09344 0 0
10:53 am 10:53 Sunny 100 37.8 34 1.1 10 10 N 6 9 29.71 1006 10 16.09344 0 0
11:53 am 11:53 Sunny 102 38.9 30 -1.1 8 8 N 3 6 29.68 1005 10 16.09344 0 0
12:53 pm 12:53 Sunny 106 41.1 24 -4.4 5 5 undefined N/A 29.59 1002 10 16.09344 0 0
1:53 pm 13:53 Sunny 109 42.8 19 -7.2 4 4 S 13 20 29.59 1002 10 16.09344 0 0
2:53 pm 14:53 Sunny 110 43.3 24 -4.4 5 5 SW 16 26 29.53 1000 10 16.09344 0 0
3:53 pm 15:53 Sunny 109 42.8 25 -3.9 5 5 SW 20 31 29.53 1000 10 16.09344 0 0
4:53 pm 16:53 Sunny 109 42.8 26 -3.3 5 5 SW 16 26 29.47 998 10 16.09344 0 0
5:53 pm 17:53 Sunny 107 41.7 28 -2.2 6 6 SW 17 28 29.5 999 10 16.09344 0 0
6:53 pm 18:53 Sunny 106 41.1 26 -3.3 6 6 SW 13 20 29.5 999 10 16.09344 0 0
7:53 pm 19:53 Sunny 103 39.4 23 -5 6 6 SW 10 17 29.5 999 10 16.09344 0 0
8:53 pm 20:53 Clear 100 37.8 20 -6.7 5 5 SW 9 15 29.53 1000 10 16.09344 0 0
9:53 pm 21:53 Clear 97 36.1 21 -6.1 6 6 SSW 8 13 29.56 1001 10 16.09344 0 0
10:53 pm 22:53 Clear 97 36.1 21 -6.1 6 6 SW 13 20 29.56 1001 10 16.09344 0 0
11:53 pm 23:53 Clear 97 36.1 24 -4.4 7 7 SW 17 28 29.53 1000 10 16.09344 0 0

Powered by AerisWeather